Home > Weather > Sochi > Past weeks

Flag for Russia Weather for the Past 2 Weeks in Sochi, Russia

Now
61 °F

Clear.


Feels Like: 61 °F
Forecast: 50 / 64 °F
Wind: 8 mph from Northeast

Location: Adler

Current Time: May 3, 2016 at 8:14:53 AM

Latest Report: May 3, 2016 at 7:30 AM


Visibility: N/A

Pressure: 29.86 "Hg

Humidity: 59%

Dew Point: 46 °F

Location of SochiLocation

Historic Weather in Sochi — Graph

°F

Sochi Temperature Yesterday

Maximum temperature yesterday: 63 °F (at 3:30 PM)
Minimum temperature yesterday: 50 °F (at 4:30 AM)
Average temperature yesterday: 57 °F

High & Low Weather Summary for the Past Weeks

 TemperatureHumidityPressure
High82 °F (Apr 20, 6:30 PM)94% (Apr 21, 4:00 AM)30.39 "Hg (Apr 21, 4:00 AM)
Low41 °F (Apr 23, 3:30 AM)16% (Apr 20, 7:30 PM)29.45 "Hg (Apr 25, 4:30 AM)
Average59 °F68%29.97 "Hg
* Reported Apr 18 6:30 AM — May 3 6:30 AM, Sochi, Weather by CustomWeather, © 2016

Note: Actual official high and low records may vary slightly from our data, if they occured in-between our weather recording intervals... More about our weather records

Advertising

Sochi Weather History for the Previous 24 Hours

Scroll right to see more
 ConditionsComfort  
Time TempWeatherWind HumidityBarometerVisibility
6:30 AM
Tue, May 3
54 °FClear.No wind82%29.86 "HgN/A
6:00 AM52 °FClear.1 mph82%29.86 "HgN/A
5:30 AM50 °FClear.3 mph88%29.86 "HgN/A
4:30 AM50 °FClear.No wind88%29.89 "HgN/A
4:00 AM50 °FClear.No wind94%29.89 "HgN/A
3:00 AM52 °FClear.1 mph88%29.89 "HgN/A
2:30 AM52 °FClear.No wind88%29.92 "HgN/A
2:00 AM54 °FClear.6 mph82%29.89 "HgN/A
1:30 AM54 °FClear.6 mph88%29.92 "HgN/A
1:00 AM54 °FClear.6 mph88%29.92 "HgN/A
12:00 AM52 °FClear.3 mph94%29.95 "Hg6 mi
11:30 PM
Mon, May 2
52 °FClear.1 mph94%29.95 "Hg6 mi
11:00 PM52 °FClear.3 mph88%29.95 "Hg6 mi
10:30 PM54 °FClear.1 mph88%29.95 "Hg6 mi
10:00 PM54 °FClear.1 mph88%29.95 "Hg5 mi
9:30 PM55 °FClear.1 mph82%29.95 "Hg6 mi
9:00 PM57 °FClear.1 mph82%29.95 "HgN/A
8:30 PM57 °FClear.3 mph82%29.95 "HgN/A
8:00 PM57 °FClear.6 mph82%29.98 "HgN/A
7:30 PM59 °FClear.6 mph77%29.98 "HgN/A
7:00 PM59 °FClear.8 mph77%29.98 "HgN/A
6:30 PM59 °FClear.8 mph77%29.98 "HgN/A
6:00 PM61 °FClear.10 mph72%29.98 "HgN/A
5:30 PM61 °FPassing clouds.8 mph77%30.01 "HgN/A
5:00 PM63 °FPassing clouds.6 mph68%30.01 "HgN/A
4:30 PM61 °FPassing clouds.10 mph72%30.01 "HgN/A
4:00 PM61 °FPassing clouds.8 mph72%30.04 "HgN/A
3:30 PM63 °FPassing clouds.8 mph68%30.04 "HgN/A
3:00 PM61 °FPassing clouds.8 mph68%30.04 "HgN/A
2:30 PM61 °FPassing clouds.8 mph68%30.07 "HgN/A
2:00 PM61 °FScattered clouds.8 mph68%30.07 "HgN/A
1:30 PM61 °FScattered clouds.8 mph68%30.07 "HgN/A
1:00 PM61 °FScattered clouds.6 mph68%30.07 "HgN/A
12:30 PM61 °FScattered clouds.8 mph68%30.07 "HgN/A
12:00 PM61 °FScattered clouds.6 mph68%30.09 "HgN/A
11:30 AM61 °FPartly sunny.6 mph68%30.09 "HgN/A
11:00 AM61 °FBroken clouds.8 mph68%30.09 "HgN/A
10:30 AM61 °FBroken clouds.6 mph68%30.09 "HgN/A
10:00 AM59 °FBroken clouds.6 mph72%30.09 "HgN/A
9:30 AM59 °FPartly sunny.3 mph72%30.09 "HgN/A
8:00 AM59 °FPartly sunny.No wind72%30.12 "HgN/A
Weather by CustomWeather, © 2016

See weather overviewHow to use our weather pages